Location: Newark
(46.2358°N, 112.1211°W)
Time: 10:34:37
(UTC+00:00)

X-37B - Visible Passes

Search period start: 04 March 2021 00:00
Search period end: 14 March 2021 00:00
Orbit: 383 x 391 km, 45.0° (Epoch: 27 February)

Date Brightness Start Highest point End Pass type
(mag) Time Alt. Az. Time Alt. Az. Time Alt. Az.
12 Mar 2.2 02:57:53 10° SSW 02:59:57 21° SSE 02:59:57 21° SSE visible
13 Mar 2.7 02:00:28 10° S 02:02:18 14° SSE 02:04:09 10° ESE visible
13 Mar 2.5 03:35:21 10° WSW 03:36:56 25° SW 03:36:56 25° SW visible
